SCP
-0 -0 -0 -0 -0 -0 -0 -0 -0 -0 -0 -0 -0 0 0 0 0 0 0 0 0 0 0 0 0 0 0 0 0 0 0 0 0 0 0 0 0 0 0 0 0 -0 0
-0 -0 -0 -0 -0 -0 -0 -0 -0 -0 -0 -0 -0 0 0 0 0 0 0 0 0 0 0 0 0 0 -0 -0 -0 -0 0 0 0 0 0 0 0 0 0 0 0 0 -0
-0 -0 -0 -0 -0 -0 -0 -0 -0 -0 -0 -0 0 0 0 0 -0 0 0 0 0 0 0 0 0 -0 -0 -0 0 0 0 0 0 0 0 0 0 0 0 0 0 0 0
-0 -0 -0 0 0 0 -0 0 0 0 0 0 -0 0 0 0 0 0 0 0 0 -0 -0 -0 -0 -0 -0 -0 -0 -0 0 0 0 0 0 0 0 0 0 0 0 0 0
-0 0 0 0 0 0 0 0 0 0 0 0 0 0 0 0 0 0 0 0 0 -0 -0 -0 -0 -0 -0 -0 -0 0 0 0 0 0 0 0 0 0 0 0 0 0 0
0 0 0 0 0 0 0 0 0 0 0 0 0 0 0 0 0 0 0 0 0 -0 -0 -0 -0 -0 -0 -0 -0 0 0 0 0 0 0 0 0 0 0 0 0 0 0
0 0 0 0 0 0 0 0 0 0 0 0 0 0 0 0 0 0 0 0 0 0 0 -0 -0 -0 0 0 0 0 0 0 0 0 0 0 0 0 0 0 0 0 0
0 0 0 0 0 0 0 0 0 0 0 0 0 0 0 0 0 0 0 0 0 0 0 0 0 0 0 0 0 0 0 0 0 0 0 0 0 0 0 0 0 0 0
0 0 0 0 0 0 0 0 0 0 0 0 0 0 0 0 0 0 0 0 0 0 0 0 0 0 0 0 0 0 0 0 0 0 0 0 0 0 0 0 0 0 0
0 0 0 0 0 0 0 0 0 0 0 0 0 0 0 0 0 0 0 0 0 0 0 0 0 0 0 0 0 0 0 0 0 0 0 0 0 0 0 0 0 0 0
0 0 0 0 0 0 0 0 0 0 0 0 0 0 0 0 0 0 0 0 0 0 0 0 0 0 0 0 0 0 0 0 0 0 0 0 0 0 0 0 0 0 0
0 0 0 0 0 0 0 0 0 0 0 0 0 0 0 0 0 0 0 0 0 0 0 0 0 0 0 0 0 0 0 0 0 0 0 0 0 0 0 0 0 0 0
0 0 0 0 0 0 0 0 0 0 0 0 0 0 0 0 0 0 0 0 0 0 0 0 0 0 0 0 0 0 0 0 0 0 0 0 0 0 0 0 0 0 0
0 0 0 0 0 0 0 0 0 0 0 0 0 0 0 0 0 0 0 0 0 0 0 0 0 0 0 0 0 0 0 0 0 0 0 0 0 0 0 0 0 0 0
0 0 0 0 0 0 0 0 0 0 0 0 0 0 0 0 0 0 0 0 0 0 0 0 0 0 0 0 0 0 0 0 0 0 0 0 0 0 0 0 0 0 0
0 0 0 0 0 0 0 0 0 0 0 0 0 0 0 0 0 0 0 0 0 0 0 0 0 0 0 0 0 0 0 0 0 0 0 0 0 0 0 0 0 0 0
0 0 0 0 0 0 0 0 0 0 0 0 0 0 0 0 0 0 0 0 0 0 0 0 0 0 0 0 0 0 0 0 0 0 0 0 0 0 0 0 0 0 0
0 0 0 0 0 0 0 0 0 0 0 0 0 0 0 0 0 0 0 0 0 0 0 0 0 0 0 0 0 0 0 0 0 0 0 0 0 0 0 0 0 0 0
0 0 0 0 0 0 0 0 0 0 0 0 0 0 0 0 0 0 0 0 0 0 0 0 0 0 0 0 0 0 0 0 0 0 0 0 0 0 0 0 0 0 0
0 0 0 0 0 0 0 0 0 0 0 0 0 0 0 0 0 0 0 0 0 0 0 0 0 0 0 0 0 0 0 0 0 0 0 0 0 0 0 0 0 0 0
0 0 0 0 0 0 0 0 0 0 0 0 0 0 0 0 0 0 0 0 0 0 0 0 0 0 0 0 0 0 0 0 0 0 0 0 0 0 0 0 0 0 0
0 0 0 0 0 0 0 0 0 0 0 0 0 0 0 0 0 0 0 0 0 0 0 0 0 0 0 0 0 0 0 0 0 0 0 0 0 0 0 0 0 0 0
0 0 0 0 0 0 0 0 0 0 0 0 0 0 0 0 0 0 0 0 0 0 0 0 0 0 0 0 0 0 0 0 0 0 0 0 0 0 0 0 0 0 0
0 0 0 0 0 0 0 0 0 0 0 0 0 0 0 0 0 0 0 0 0 0 0 0 0 0 0 0 0 0 0 0 0 0 0 0 0 0 0 0 0 0 0
0 0 0 0 0 0 0 0 0 0 0 0 0 0 0 0 0 0 0 0 0 0 0 0 0 0 0 0 0 0 0 0 0 0 0 0 0 0 0 0 0 0 0
0 0 0 0 0 0 0 0 0 0 0 0 0 0 0 0 0 0 0 0 0 0 0 0 0 0 0 0 0 0 0 0 0 0 0 0 0 0 0 0 0 0 0
Wind_Speed_500mb
50 49 52 52 48 44 40 39 35 29 25 22 20 20 18 16 13 12 11 11 11 11 11 11 9 6 5 5 4 5 5 6 6 5 2 2 4 6 8 11 16 15 17
49 52 54 52 49 44 42 41 37 32 27 25 23 22 20 18 15 12 11 10 8 8 7 6 4 3 2 1 1 3 4 4 6 5 3 3 5 6 10 14 16 15 10
49 52 55 53 50 47 44 42 39 34 30 27 26 25 23 20 16 15 14 11 10 8 4 3 2 3 4 6 4 5 7 9 10 10 8 5 10 12 13 15 17 16 14
52 53 56 56 53 49 45 43 40 37 33 30 27 26 25 23 24 21 21 19 17 18 19 17 16 15 13 12 11 12 13 11 12 13 11 16 18 20 20 20 18 18 18
54 55 54 55 54 48 45 43 41 37 33 32 32 33 27 28 26 21 20 20 22 22 21 22 23 22 23 22 22 21 19 17 18 18 20 22 22 24 23 24 24 22 22
54 56 51 51 51 49 47 41 42 40 34 35 35 31 26 27 25 24 23 24 25 26 26 26 27 29 28 28 28 27 25 24 24 26 27 30 28 31 28 28 27 25 24
55 56 54 50 46 48 51 47 43 41 43 40 36 30 30 30 27 27 27 27 28 29 30 30 29 27 24 23 22 21 22 23 25 28 30 32 34 32 32 33 32 30 28
57 60 56 53 51 50 51 50 48 43 42 38 34 34 33 31 30 29 29 29 28 28 28 24 21 19 17 16 16 15 15 15 17 20 20 23 25 27 29 29 31 31 33
59 61 60 58 57 58 54 52 46 42 40 38 37 36 33 31 30 31 29 27 26 24 19 17 15 14 13 12 11 12 12 13 16 18 20 21 21 23 25 26 26 27 30
64 65 64 62 60 57 54 50 46 44 40 39 39 37 33 31 31 30 24 23 21 20 16 15 13 12 12 14 14 15 15 14 17 18 20 22 21 22 24 26 26 27 28
68 70 67 65 62 59 57 53 48 45 43 42 41 37 35 34 32 29 26 23 21 18 16 15 16 15 15 15 15 15 17 16 17 19 22 21 22 23 24 26 27 27 27
74 76 74 70 67 65 60 56 54 52 50 48 46 41 39 36 33 30 26 24 21 18 17 18 17 16 16 14 13 14 17 18 18 19 22 22 22 21 23 23 25 27 27
70 78 78 74 72 67 65 61 58 56 53 51 47 44 41 37 34 31 29 26 23 21 20 19 17 15 15 14 13 15 17 18 19 19 19 19 19 19 20 21 23 25 26
75 76 78 79 76 70 68 63 59 55 52 50 49 47 43 39 37 34 30 27 24 22 20 18 17 14 13 14 15 15 16 17 17 16 17 16 17 17 17 19 21 23 30
74 76 78 81 77 74 72 67 61 56 52 52 51 48 44 42 38 35 32 28 25 23 19 18 16 14 13 14 15 16 16 15 16 15 17 15 14 17 18 17 25 32 32
82 78 80 82 80 78 74 69 63 60 57 57 54 49 45 43 40 36 33 30 27 23 20 18 16 15 14 14 15 15 15 14 15 16 16 14 15 12 21 29 25 31 33
83 80 84 85 83 81 74 71 67 63 62 60 55 51 49 45 40 37 34 30 27 24 21 19 18 16 15 13 13 14 15 15 16 18 16 15 11 24 25 28 26 34 43
82 86 85 87 88 83 78 75 71 66 66 62 58 54 51 46 42 38 35 31 27 24 21 20 19 17 14 12 11 13 15 15 18 18 16 16 24 24 31 25 36 37 47
79 82 87 90 93 88 83 79 74 70 69 65 61 58 54 48 44 40 36 33 29 26 24 22 20 17 14 12 11 12 15 17 17 17 15 20 25 30 24 37 35 48 47
94 84 85 88 95 94 88 83 80 76 73 71 68 63 57 52 47 43 39 34 31 28 26 25 21 17 14 12 10 11 15 15 17 18 15 22 27 24 31 37 49 49 49
92 97 94 92 97 101 99 96 91 90 86 80 72 66 62 56 50 46 42 37 34 31 27 25 21 17 14 10 7 9 10 13 19 21 26 26 25 29 39 43 50 52 55
84 98 102 102 100 108 106 99 95 92 88 81 77 72 68 62 54 49 44 39 36 32 28 26 22 17 14 10 6 5 6 10 17 24 24 27 33 39 47 51 50 53 52
94 97 103 108 104 109 110 104 98 94 91 90 87 83 75 62 59 53 46 42 38 34 29 26 23 19 15 12 8 5 3 6 15 18 30 27 37 47 52 48 53 48 48
83 95 100 104 109 108 113 114 111 108 109 106 94 82 77 71 63 56 50 44 40 36 32 27 24 21 18 16 12 10 10 12 5 14 25 38 40 46 51 47 44 41 43
62 77 94 102 108 110 117 120 115 111 105 102 99 91 83 75 66 61 55 48 43 37 33 29 26 23 22 19 16 13 12 13 14 14 29 34 47 47 53 46 35 36 38
57 69 78 97 107 112 116 122 121 115 111 108 102 97 89 79 73 69 60 51 45 39 33 30 28 26 25 22 19 17 15 14 18 18 22 29 43 46 55 46 30 29 34
Wind_Direction_500mb
187 185 183 185 186 186 187 187 188 185 182 180 178 182 180 172 162 153 151 147 136 130 120 121 126 128 110 106 111 101 121 159 175 169 197 270 294 302 307 320 329 334 316
187 184 185 187 189 190 190 190 189 187 189 189 191 195 193 191 187 185 186 177 161 144 142 134 135 142 129 82 119 183 194 196 206 213 229 294 295 303 308 322 333 337 331
186 187 186 190 191 190 191 191 190 190 193 196 197 201 204 204 208 215 213 203 195 188 180 199 234 271 257 258 257 249 243 236 241 256 274 286 282 291 299 312 324 333 322
187 189 189 190 190 191 191 191 192 195 197 199 196 201 204 198 194 193 191 198 190 193 192 202 222 236 262 275 271 260 260 266 265 272 277 280 285 290 292 298 306 316 319
189 192 193 190 189 188 193 193 195 199 201 199 204 212 213 213 215 213 213 213 213 224 235 247 260 265 265 264 263 263 269 272 275 276 279 281 284 285 286 290 297 303 306
196 193 195 192 189 187 191 194 194 199 200 199 203 214 208 213 221 226 228 229 233 240 248 255 264 269 268 264 262 262 262 260 265 271 275 280 282 277 282 283 282 284 292
201 197 192 189 191 194 196 196 192 190 194 203 215 223 223 229 234 237 240 241 244 250 256 261 265 265 263 264 265 265 263 263 264 267 271 275 275 282 281 280 277 271 268
207 201 193 185 188 191 193 194 196 205 212 219 225 230 232 232 235 240 242 244 247 250 254 258 261 262 263 264 269 274 275 275 273 276 279 280 283 285 285 284 283 282 272
208 204 196 193 193 197 201 205 211 216 220 227 232 234 232 234 237 239 241 241 240 241 238 243 248 257 265 269 271 274 281 288 290 292 291 289 292 289 290 289 287 285 281
207 205 203 202 203 205 207 212 219 222 225 229 233 236 235 234 236 237 229 224 224 227 230 237 238 247 261 273 277 282 285 285 288 290 290 291 293 295 293 291 290 287 285
207 207 207 208 208 209 211 215 220 224 228 233 235 231 230 232 223 217 217 217 221 227 231 238 246 253 259 267 274 282 285 287 289 290 291 298 298 297 294 294 294 293 291
210 211 209 209 210 211 212 216 220 225 229 232 230 226 223 216 214 215 215 217 222 227 240 246 249 256 261 262 271 277 283 285 287 291 294 297 298 299 298 298 300 300 299
214 213 212 210 211 211 214 218 222 227 230 227 221 216 211 212 212 214 214 216 223 228 234 242 248 252 259 267 270 277 282 286 290 291 294 295 296 297 296 300 301 304 307
222 220 215 213 213 212 217 221 226 229 225 217 209 208 209 211 212 213 216 218 221 226 230 233 242 249 263 274 277 277 279 287 290 293 294 296 300 298 298 301 305 312 310
221 221 218 216 215 216 218 221 224 223 216 210 207 208 209 212 214 215 216 216 217 222 226 236 241 253 259 270 275 280 283 287 289 291 290 293 291 297 300 303 306 308 307
230 225 221 218 217 218 219 222 221 217 211 210 209 210 212 214 214 215 216 215 215 218 223 232 242 249 254 261 272 277 279 283 285 286 285 284 290 292 297 300 308 307 305
234 230 225 221 219 219 220 221 218 216 212 212 211 213 213 214 213 215 216 215 217 218 223 228 235 242 249 252 259 270 278 280 280 279 276 278 269 308 304 306 311 314 310
234 230 228 224 221 220 219 219 218 217 214 213 213 214 214 213 214 215 215 216 220 223 227 230 232 237 246 255 260 266 268 270 273 269 258 253 296 304 307 308 316 317 314
238 234 230 226 223 220 219 218 218 217 216 214 214 214 214 214 215 215 215 217 220 223 229 230 232 234 243 249 254 260 265 270 258 242 254 284 299 308 308 317 317 316 317
238 237 233 230 225 221 219 217 217 216 215 215 215 214 213 214 214 216 217 220 221 224 226 230 229 232 239 245 256 261 272 256 241 253 274 302 311 308 313 319 324 319 318
232 232 231 229 225 221 217 215 215 214 213 213 213 214 213 214 213 215 217 220 222 224 224 228 232 232 238 248 261 278 248 227 257 207 313 312 314 314 323 323 325 324 323
232 230 229 229 227 222 220 218 218 216 215 215 213 214 213 213 213 215 217 221 224 224 226 228 231 234 238 245 265 288 195 256 229 246 291 307 322 321 325 330 329 325 325
230 229 228 227 225 223 220 217 215 217 214 212 212 213 212 212 214 214 216 219 224 224 225 229 232 234 238 236 234 206 202 197 277 279 300 307 322 326 324 329 326 323 323
236 233 230 228 225 222 219 217 217 217 214 216 216 214 212 213 214 214 214 218 223 224 226 229 233 236 239 240 233 221 230 255 275 305 307 313 321 325 322 328 321 318 318
242 233 230 227 226 223 220 219 218 218 220 219 214 212 212 213 213 215 215 216 220 222 225 230 236 240 241 243 243 247 256 274 279 270 297 307 317 326 322 332 314 315 314
233 231 230 226 224 223 220 220 219 218 219 219 217 213 211 212 214 215 215 216 217 220 225 231 237 242 244 246 248 255 268 284 294 291 285 300 303 322 321 328 316 306 308
Wind_Speed_850mb
50 49 52 52 48 44 40 39 35 29 25 22 20 20 18 16 13 12 11 11 11 11 11 11 9 6 5 5 4 5 5 6 6 5 2 2 4 6 8 11 16 15 17
49 52 54 52 49 44 42 41 37 32 27 25 23 22 20 18 15 12 11 10 8 8 7 6 4 3 2 1 1 3 4 4 6 5 3 3 5 6 10 14 16 15 10
49 52 55 53 50 47 44 42 39 34 30 27 26 25 23 20 16 15 14 11 10 8 4 3 2 3 4 6 4 5 7 9 10 10 8 5 10 12 13 15 17 16 14
52 53 56 56 53 49 45 43 40 37 33 30 27 26 25 23 24 21 21 19 17 18 19 17 16 15 13 12 11 12 13 11 12 13 11 16 18 20 20 20 18 18 18
54 55 54 55 54 48 45 43 41 37 33 32 32 33 27 28 26 21 20 20 22 22 21 22 23 22 23 22 22 21 19 17 18 18 20 22 22 24 23 24 24 22 22
54 56 51 51 51 49 47 41 42 40 34 35 35 31 26 27 25 24 23 24 25 26 26 26 27 29 28 28 28 27 25 24 24 26 27 30 28 31 28 28 27 25 24
55 56 54 50 46 48 51 47 43 41 43 40 36 30 30 30 27 27 27 27 28 29 30 30 29 27 24 23 22 21 22 23 25 28 30 32 34 32 32 33 32 30 28
57 60 56 53 51 50 51 50 48 43 42 38 34 34 33 31 30 29 29 29 28 28 28 24 21 19 17 16 16 15 15 15 17 20 20 23 25 27 29 29 31 31 33
59 61 60 58 57 58 54 52 46 42 40 38 37 36 33 31 30 31 29 27 26 24 19 17 15 14 13 12 11 12 12 13 16 18 20 21 21 23 25 26 26 27 30
64 65 64 62 60 57 54 50 46 44 40 39 39 37 33 31 31 30 24 23 21 20 16 15 13 12 12 14 14 15 15 14 17 18 20 22 21 22 24 26 26 27 28
68 70 67 65 62 59 57 53 48 45 43 42 41 37 35 34 32 29 26 23 21 18 16 15 16 15 15 15 15 15 17 16 17 19 22 21 22 23 24 26 27 27 27
74 76 74 70 67 65 60 56 54 52 50 48 46 41 39 36 33 30 26 24 21 18 17 18 17 16 16 14 13 14 17 18 18 19 22 22 22 21 23 23 25 27 27
70 78 78 74 72 67 65 61 58 56 53 51 47 44 41 37 34 31 29 26 23 21 20 19 17 15 15 14 13 15 17 18 19 19 19 19 19 19 20 21 23 25 26
75 76 78 79 76 70 68 63 59 55 52 50 49 47 43 39 37 34 30 27 24 22 20 18 17 14 13 14 15 15 16 17 17 16 17 16 17 17 17 19 21 23 30
74 76 78 81 77 74 72 67 61 56 52 52 51 48 44 42 38 35 32 28 25 23 19 18 16 14 13 14 15 16 16 15 16 15 17 15 14 17 18 17 25 32 32
82 78 80 82 80 78 74 69 63 60 57 57 54 49 45 43 40 36 33 30 27 23 20 18 16 15 14 14 15 15 15 14 15 16 16 14 15 12 21 29 25 31 33
83 80 84 85 83 81 74 71 67 63 62 60 55 51 49 45 40 37 34 30 27 24 21 19 18 16 15 13 13 14 15 15 16 18 16 15 11 24 25 28 26 34 43
82 86 85 87 88 83 78 75 71 66 66 62 58 54 51 46 42 38 35 31 27 24 21 20 19 17 14 12 11 13 15 15 18 18 16 16 24 24 31 25 36 37 47
79 82 87 90 93 88 83 79 74 70 69 65 61 58 54 48 44 40 36 33 29 26 24 22 20 17 14 12 11 12 15 17 17 17 15 20 25 30 24 37 35 48 47
94 84 85 88 95 94 88 83 80 76 73 71 68 63 57 52 47 43 39 34 31 28 26 25 21 17 14 12 10 11 15 15 17 18 15 22 27 24 31 37 49 49 49
92 97 94 92 97 101 99 96 91 90 86 80 72 66 62 56 50 46 42 37 34 31 27 25 21 17 14 10 7 9 10 13 19 21 26 26 25 29 39 43 50 52 55
84 98 102 102 100 108 106 99 95 92 88 81 77 72 68 62 54 49 44 39 36 32 28 26 22 17 14 10 6 5 6 10 17 24 24 27 33 39 47 51 50 53 52
94 97 103 108 104 109 110 104 98 94 91 90 87 83 75 62 59 53 46 42 38 34 29 26 23 19 15 12 8 5 3 6 15 18 30 27 37 47 52 48 53 48 48
83 95 100 104 109 108 113 114 111 108 109 106 94 82 77 71 63 56 50 44 40 36 32 27 24 21 18 16 12 10 10 12 5 14 25 38 40 46 51 47 44 41 43
62 77 94 102 108 110 117 120 115 111 105 102 99 91 83 75 66 61 55 48 43 37 33 29 26 23 22 19 16 13 12 13 14 14 29 34 47 47 53 46 35 36 38
57 69 78 97 107 112 116 122 121 115 111 108 102 97 89 79 73 69 60 51 45 39 33 30 28 26 25 22 19 17 15 14 18 18 22 29 43 46 55 46 30 29 34
Wind_Direction_850mb
187 185 183 185 186 186 187 187 188 185 182 180 178 182 180 172 162 153 151 147 136 130 120 121 126 128 110 106 111 101 121 159 175 169 197 270 294 302 307 320 329 334 316
187 184 185 187 189 190 190 190 189 187 189 189 191 195 193 191 187 185 186 177 161 144 142 134 135 142 129 82 119 183 194 196 206 213 229 294 295 303 308 322 333 337 331
186 187 186 190 191 190 191 191 190 190 193 196 197 201 204 204 208 215 213 203 195 188 180 199 234 271 257 258 257 249 243 236 241 256 274 286 282 291 299 312 324 333 322
187 189 189 190 190 191 191 191 192 195 197 199 196 201 204 198 194 193 191 198 190 193 192 202 222 236 262 275 271 260 260 266 265 272 277 280 285 290 292 298 306 316 319
189 192 193 190 189 188 193 193 195 199 201 199 204 212 213 213 215 213 213 213 213 224 235 247 260 265 265 264 263 263 269 272 275 276 279 281 284 285 286 290 297 303 306
196 193 195 192 189 187 191 194 194 199 200 199 203 214 208 213 221 226 228 229 233 240 248 255 264 269 268 264 262 262 262 260 265 271 275 280 282 277 282 283 282 284 292
201 197 192 189 191 194 196 196 192 190 194 203 215 223 223 229 234 237 240 241 244 250 256 261 265 265 263 264 265 265 263 263 264 267 271 275 275 282 281 280 277 271 268
207 201 193 185 188 191 193 194 196 205 212 219 225 230 232 232 235 240 242 244 247 250 254 258 261 262 263 264 269 274 275 275 273 276 279 280 283 285 285 284 283 282 272
208 204 196 193 193 197 201 205 211 216 220 227 232 234 232 234 237 239 241 241 240 241 238 243 248 257 265 269 271 274 281 288 290 292 291 289 292 289 290 289 287 285 281
207 205 203 202 203 205 207 212 219 222 225 229 233 236 235 234 236 237 229 224 224 227 230 237 238 247 261 273 277 282 285 285 288 290 290 291 293 295 293 291 290 287 285
207 207 207 208 208 209 211 215 220 224 228 233 235 231 230 232 223 217 217 217 221 227 231 238 246 253 259 267 274 282 285 287 289 290 291 298 298 297 294 294 294 293 291
210 211 209 209 210 211 212 216 220 225 229 232 230 226 223 216 214 215 215 217 222 227 240 246 249 256 261 262 271 277 283 285 287 291 294 297 298 299 298 298 300 300 299
214 213 212 210 211 211 214 218 222 227 230 227 221 216 211 212 212 214 214 216 223 228 234 242 248 252 259 267 270 277 282 286 290 291 294 295 296 297 296 300 301 304 307
222 220 215 213 213 212 217 221 226 229 225 217 209 208 209 211 212 213 216 218 221 226 230 233 242 249 263 274 277 277 279 287 290 293 294 296 300 298 298 301 305 312 310
221 221 218 216 215 216 218 221 224 223 216 210 207 208 209 212 214 215 216 216 217 222 226 236 241 253 259 270 275 280 283 287 289 291 290 293 291 297 300 303 306 308 307
230 225 221 218 217 218 219 222 221 217 211 210 209 210 212 214 214 215 216 215 215 218 223 232 242 249 254 261 272 277 279 283 285 286 285 284 290 292 297 300 308 307 305
234 230 225 221 219 219 220 221 218 216 212 212 211 213 213 214 213 215 216 215 217 218 223 228 235 242 249 252 259 270 278 280 280 279 276 278 269 308 304 306 311 314 310
234 230 228 224 221 220 219 219 218 217 214 213 213 214 214 213 214 215 215 216 220 223 227 230 232 237 246 255 260 266 268 270 273 269 258 253 296 304 307 308 316 317 314
238 234 230 226 223 220 219 218 218 217 216 214 214 214 214 214 215 215 215 217 220 223 229 230 232 234 243 249 254 260 265 270 258 242 254 284 299 308 308 317 317 316 317
238 237 233 230 225 221 219 217 217 216 215 215 215 214 213 214 214 216 217 220 221 224 226 230 229 232 239 245 256 261 272 256 241 253 274 302 311 308 313 319 324 319 318
232 232 231 229 225 221 217 215 215 214 213 213 213 214 213 214 213 215 217 220 222 224 224 228 232 232 238 248 261 278 248 227 257 207 313 312 314 314 323 323 325 324 323
232 230 229 229 227 222 220 218 218 216 215 215 213 214 213 213 213 215 217 221 224 224 226 228 231 234 238 245 265 288 195 256 229 246 291 307 322 321 325 330 329 325 325
230 229 228 227 225 223 220 217 215 217 214 212 212 213 212 212 214 214 216 219 224 224 225 229 232 234 238 236 234 206 202 197 277 279 300 307 322 326 324 329 326 323 323
236 233 230 228 225 222 219 217 217 217 214 216 216 214 212 213 214 214 214 218 223 224 226 229 233 236 239 240 233 221 230 255 275 305 307 313 321 325 322 328 321 318 318
242 233 230 227 226 223 220 219 218 218 220 219 214 212 212 213 213 215 215 216 220 222 225 230 236 240 241 243 243 247 256 274 279 270 297 307 317 326 322 332 314 315 314
233 231 230 226 224 223 220 220 219 218 219 219 217 213 211 212 214 215 215 216 217 220 225 231 237 242 244 246 248 255 268 284 294 291 285 300 303 322 321 328 316 306 308